Weather History for KIDP - February, 2013

Change the Weather History Date:

Monday, February 18, 2013

  Actual Average (KCFV) Record (KCFV)
Temperature  
Mean Temperature 46 °F -  
Max Temperature 59 °F 49 °F 73 °F (2014)
Min Temperature 32 °F 30 °F 10 °F (2006)
Degree Days  
Heating Degree Days 20    
Moisture  
Dew Point 35 °F    
Average Humidity 60    
Maximum Humidity 77    
Minimum Humidity 38    
Precipitation  
Precipitation 0.00 in - - ()
Sea Level Pressure  
Sea Level Pressure 29.77 in    
Wind  
Wind Speed 22 mph (West)    
Max Wind Speed 30 mph    
Max Gust Speed 44 mph    
Visibility 10 miles    
Events      
Averages and records for this station are not official NWS values.
T = Trace of Precipitation, MM = Missing Value Source: NWS Daily Summary

Daily Weather History Graph

Daily Weather History Graph

Search for Another Location

Airport or City:

Trip Planner

Search our weather history database for the weather conditions in past years. The results will help you decide how hot, cold, wet, or windy it might be!

Date:

Astronomy

Feb. 18, 2013 Rise Set
Actual Time 7:08 AM CST 6:06 PM CST
Civil Twilight 6:41 AM CST 6:32 PM CST
Nautical Twilight 6:11 AM CST 7:03 PM CST
Astronomical Twilight 5:41 AM CST 7:33 PM CST
Moon 11:57 AM CST (2/18) 1:45 AM CST (2/18)
Length of Visible Light 11h 51m
Length of Day
10h 58m
First Quarter, 58% of the Moon is Illuminated
Feb 18
First Quarter
Feb 25
Full
Mar 4
Last Quarter
Mar 11
New
Mar 19
First Quarter

Hourly Weather History & Observations

Time (CST) Temp. Windchill Dew Point Humidity Pressure Visibility Wind Dir Wind Speed Gust Speed Precip Events Conditions
12:15 AM 53.6 °F - 32.0 °F 44% 29.70 in 10.0 mi South 18.4 mph 26.5 mph N/A   Clear
12:35 AM 53.6 °F - 32.0 °F 44% 29.69 in 10.0 mi South 21.9 mph 26.5 mph N/A   Clear
12:55 AM 53.6 °F - 32.0 °F 44% 29.69 in 10.0 mi South 19.6 mph 27.6 mph N/A   Clear
1:15 AM 53.6 °F - 33.8 °F 47% 29.68 in 10.0 mi South 20.7 mph 25.3 mph N/A   Clear
1:35 AM 53.6 °F - 33.8 °F 47% 29.67 in 10.0 mi South 18.4 mph 28.8 mph N/A   Clear
1:55 AM 53.6 °F - 33.8 °F 47% 29.66 in 10.0 mi South 21.9 mph 27.6 mph N/A   Clear
2:15 AM 53.6 °F - 35.6 °F 51% 29.65 in 10.0 mi South 20.7 mph 27.6 mph N/A   Clear
2:35 AM 53.6 °F - 35.6 °F 51% 29.65 in 10.0 mi South 21.9 mph 27.6 mph N/A   Clear
2:55 AM 53.6 °F - 35.6 °F 51% 29.64 in 10.0 mi South 24.2 mph 34.5 mph N/A   Clear
3:15 AM 53.6 °F - 37.4 °F 54% 29.63 in 10.0 mi South 21.9 mph 33.4 mph N/A   Clear
3:35 AM 53.6 °F - 37.4 °F 54% 29.63 in 10.0 mi South 25.3 mph 29.9 mph N/A   Clear
3:55 AM 53.6 °F - 39.2 °F 58% 29.62 in 10.0 mi South 23.0 mph 31.1 mph N/A   Clear
4:15 AM 53.6 °F - 41.0 °F 62% 29.61 in 10.0 mi South 24.2 mph 32.2 mph N/A   Clear
4:35 AM 53.6 °F - 41.0 °F 62% 29.61 in 10.0 mi South 24.2 mph 33.4 mph N/A   Clear
4:55 AM 53.6 °F - 42.8 °F 67% 29.60 in 10.0 mi South 25.3 mph 34.5 mph N/A   Clear
5:15 AM 53.6 °F - 42.8 °F 67% 29.60 in 10.0 mi South 26.5 mph 33.4 mph N/A   Scattered Clouds
6:15 AM 51.8 °F - 44.6 °F 76% 29.58 in 10.0 mi South 27.6 mph 34.5 mph N/A   Scattered Clouds
6:35 AM 51.8 °F - 44.6 °F 76% 29.58 in 10.0 mi South 24.2 mph 33.4 mph N/A   Scattered Clouds
6:55 AM 51.8 °F - 44.6 °F 76% 29.58 in 10.0 mi South 27.6 mph 34.5 mph N/A   Scattered Clouds
7:15 AM 53.6 °F - 44.6 °F 72% 29.57 in 10.0 mi South 25.3 mph 32.2 mph N/A   Mostly Cloudy
7:35 AM 53.6 °F - 44.6 °F 72% 29.57 in 10.0 mi South 24.2 mph 33.4 mph N/A   Mostly Cloudy
7:55 AM 53.6 °F - 46.4 °F 77% 29.57 in 10.0 mi South 27.6 mph 34.5 mph N/A   Scattered Clouds
8:15 AM 53.6 °F - 46.4 °F 77% 29.57 in 10.0 mi South 26.5 mph 34.5 mph N/A   Clear
8:35 AM 55.4 °F - 46.4 °F 72% 29.57 in 10.0 mi South 29.9 mph 35.7 mph N/A   Scattered Clouds
8:55 AM 55.4 °F - 46.4 °F 72% 29.57 in 10.0 mi SSW 27.6 mph 38.0 mph N/A   Scattered Clouds
9:15 AM 57.2 °F - 46.4 °F 67% 29.57 in 10.0 mi SSW 27.6 mph 39.1 mph N/A   Mostly Cloudy
9:35 AM 55.4 °F - 46.4 °F 72% 29.57 in 10.0 mi SSW 27.6 mph 35.7 mph N/A   Mostly Cloudy
9:55 AM 57.2 °F - 46.4 °F 67% 29.57 in 10.0 mi SSW 29.9 mph 39.1 mph N/A   Overcast
10:15 AM 57.2 °F - 46.4 °F 67% 29.57 in 10.0 mi SSW 24.2 mph 28.8 mph N/A   Overcast
10:35 AM 59.0 °F - 44.6 °F 59% 29.57 in 10.0 mi SW 21.9 mph 32.2 mph N/A   Overcast
10:55 AM 53.6 °F - 42.8 °F 67% 29.60 in 10.0 mi WSW 26.5 mph 32.2 mph N/A   Overcast
11:15 AM 55.4 °F - 37.4 °F 51% 29.61 in 10.0 mi WSW 26.5 mph 35.7 mph N/A   Mostly Cloudy
11:35 AM 57.2 °F - 32.0 °F 38% 29.62 in 10.0 mi WSW 28.8 mph 35.7 mph N/A   Scattered Clouds
11:55 AM 55.4 °F - 32.0 °F 41% 29.64 in 10.0 mi West 25.3 mph 33.4 mph N/A   Clear
12:15 PM 55.4 °F - 35.6 °F 47% 29.65 in 10.0 mi WNW 18.4 mph 34.5 mph N/A   Clear
12:35 PM 53.6 °F - 35.6 °F 51% 29.66 in 10.0 mi NW 24.2 mph 36.8 mph N/A   Clear
12:55 PM 53.6 °F - 35.6 °F 51% 29.68 in 10.0 mi NW 29.9 mph 36.8 mph N/A   Scattered Clouds
1:15 PM 53.6 °F - 33.8 °F 47% 29.70 in 10.0 mi NNW 27.6 mph 43.7 mph N/A   Scattered Clouds
1:35 PM 51.8 °F - 33.8 °F 50% 29.72 in 10.0 mi NNW 27.6 mph 39.1 mph N/A   Overcast
1:55 PM 51.8 °F - 32.0 °F 47% 29.73 in 10.0 mi NNW 29.9 mph 38.0 mph N/A   Scattered Clouds
2:15 PM 51.8 °F - 32.0 °F 47% 29.74 in 10.0 mi NW 25.3 mph 35.7 mph N/A   Clear
2:35 PM 51.8 °F - 32.0 °F 47% 29.75 in 10.0 mi NW 25.3 mph 33.4 mph N/A   Clear
2:55 PM 53.6 °F - 32.0 °F 44% 29.77 in 10.0 mi NNW 27.6 mph 32.2 mph N/A   Scattered Clouds
3:15 PM 51.8 °F - 32.0 °F 47% 29.78 in 10.0 mi NW 28.8 mph 36.8 mph N/A   Scattered Clouds
3:35 PM 50.0 °F - 32.0 °F 50% 29.80 in 10.0 mi NW 21.9 mph 33.4 mph N/A   Clear
3:55 PM 48.2 °F - 32.0 °F 54% 29.83 in 10.0 mi NNW 28.8 mph 36.8 mph N/A   Clear
4:15 PM 48.2 °F - 32.0 °F 54% 29.85 in 10.0 mi NNW 28.8 mph 34.5 mph N/A   Clear
4:35 PM 46.4 °F 38.3 °F 32.0 °F 57% 29.86 in 10.0 mi NNW 23.0 mph 33.4 mph N/A   Clear
5:15 PM 46.4 °F 38.5 °F 30.2 °F 53% 29.89 in 10.0 mi NNW 21.9 mph 27.6 mph N/A   Scattered Clouds
5:35 PM 44.6 °F 36.6 °F 30.2 °F 57% 29.91 in 10.0 mi NNW 19.6 mph - N/A   Clear
5:55 PM 42.8 °F 35.4 °F 30.2 °F 61% 29.92 in 10.0 mi NNW 15.0 mph - N/A   Clear
6:15 PM 42.8 °F 36.2 °F 30.2 °F 61% 29.95 in 10.0 mi NNW 12.7 mph - N/A   Clear
6:35 PM 42.8 °F 35.8 °F 28.4 °F 57% 29.97 in 10.0 mi NNW 13.8 mph 17.3 mph N/A   Clear
6:55 PM 41.0 °F 33.9 °F 28.4 °F 61% 29.99 in 10.0 mi NNW 12.7 mph - N/A   Clear
7:15 PM 39.2 °F 32.0 °F 28.4 °F 65% 30.00 in 10.0 mi North 11.5 mph 17.3 mph N/A   Clear
7:35 PM 39.2 °F 32.0 °F 28.4 °F 65% 30.02 in 10.0 mi North 11.5 mph 18.4 mph N/A   Clear
7:55 PM 37.4 °F 29.3 °F 28.4 °F 70% 30.03 in 10.0 mi North 12.7 mph - N/A   Clear
8:15 PM 37.4 °F 28.9 °F 26.6 °F 65% 30.05 in 10.0 mi NNW 13.8 mph - N/A   Clear
8:35 PM 37.4 °F 29.8 °F 26.6 °F 65% 30.06 in 10.0 mi NNW 11.5 mph - N/A   Clear
8:55 PM 35.6 °F 28.6 °F 26.6 °F 70% 30.07 in 10.0 mi NNW 9.2 mph - N/A   Clear
9:15 PM 35.6 °F 28.6 °F 26.6 °F 70% 30.09 in 10.0 mi NNW 9.2 mph - N/A   Clear
9:35 PM 33.8 °F 26.4 °F 26.6 °F 75% 30.10 in 10.0 mi NNW 9.2 mph - N/A   Clear
10:15 PM 33.8 °F 27.7 °F 24.8 °F 70% 30.13 in 10.0 mi NW 6.9 mph - N/A   Clear
10:35 PM 32.0 °F 24.2 °F 23.0 °F 69% 30.13 in 10.0 mi NNW 9.2 mph - N/A   Clear
10:55 PM 32.0 °F 23.6 °F 23.0 °F 69% 30.14 in 10.0 mi North 10.4 mph - N/A   Clear
11:15 PM 32.0 °F 23.6 °F 23.0 °F 69% 30.15 in 10.0 mi NNW 10.4 mph - N/A   Clear
11:35 PM 32.0 °F 24.2 °F 23.0 °F 69% 30.15 in 10.0 mi NNW 9.2 mph - N/A   Clear
11:55 PM 32.0 °F 24.8 °F 23.0 °F 69% 30.16 in 10.0 mi NNW 8.1 mph - N/A   Clear